Mount Holly, NJ

12:52 PM EDT on June 28, 2017 (GMT -0400)
South Jersey Regional

Weather History for KVAY - March, 2014

Change the Weather History Date:

Thursday, March 20, 2014

  Actual Average (KPNE) Record (KPNE)
Temperature  
Mean Temperature 48 °F -  
Max Temperature 54 °F 49 °F 73 °F (2012)
Min Temperature 42 °F 32 °F 27 °F (2004)
Degree Days  
Heating Degree Days 18    
Moisture  
Dew Point 36 °F    
Average Humidity 74    
Maximum Humidity 97    
Minimum Humidity 33    
Precipitation  
Precipitation 0.00 in - - ()
Sea Level Pressure  
Sea Level Pressure 29.83 in    
Wind  
Wind Speed 7 mph (West)    
Max Wind Speed 17 mph    
Max Gust Speed 30 mph    
Visibility 6 miles    
Events      
Averages and records for this station are not official NWS values.
T = Trace of Precipitation, MM = Missing Value Source: NWS Daily Summary

Daily Weather History Graph

Daily Weather History Graph

Search for Another Location

Airport or City:

Trip Planner

Search our weather history database for the weather conditions in past years. The results will help you decide how hot, cold, wet, or windy it might be!

Date:

Astronomy

Mar. 20, 2014 Rise Set
Actual Time 7:02 AM EDT 7:11 PM EDT
Civil Twilight 6:35 AM EDT 7:38 PM EDT
Nautical Twilight 6:04 AM EDT 8:10 PM EDT
Astronomical Twilight 5:32 AM EDT 8:42 PM EDT
Moon 11:28 PM EDT (3/20) 9:07 AM EDT (3/20)
Length of Visible Light 13h 02m
Length of Day
12h 08m
Waning Gibbous, 84% of the Moon is Illuminated
Mar 20
Waning Gibbous
Mar 23
Last Quarter
Mar 30
New
Apr 7
First Quarter
Apr 15
Full

Hourly Weather History & Observations

Time (EDT) Temp. Windchill Dew Point Humidity Pressure Visibility Wind Dir Wind Speed Gust Speed Precip Events Conditions
12:05 AM 45.0 °F - 43.0 °F 93% 29.83 in 1.2 mi Calm Calm - N/A   Overcast
12:54 AM 44.1 °F 42.5 °F 43.0 °F 96% 29.81 in 1.2 mi WNW 3.5 mph - N/A   Overcast
1:54 AM 44.1 °F 41.5 °F 43.0 °F 96% 29.79 in 1.5 mi WSW 4.6 mph - N/A   Overcast
2:04 AM 45.0 °F 41.2 °F 44.1 °F 97% 29.79 in 3.0 mi West 6.9 mph - N/A   Overcast
2:54 AM 44.1 °F 38.6 °F 43.0 °F 96% 29.78 in 5.0 mi WSW 10.4 mph - N/A   Overcast
3:22 AM 44.1 °F 39.5 °F 43.0 °F 96% 29.78 in 2.5 mi WSW 8.1 mph - N/A   Overcast
3:44 AM 43.0 °F 38.2 °F 42.1 °F 97% 29.78 in 1.8 mi West 8.1 mph - N/A   Overcast
3:54 AM 43.0 °F 39.5 °F 42.1 °F 97% 29.78 in 2.0 mi WSW 5.8 mph - N/A   Overcast
4:15 AM 43.0 °F 38.8 °F 42.1 °F 97% 29.78 in 1.5 mi WSW 6.9 mph - N/A   Overcast
4:54 AM 43.0 °F 38.8 °F 42.1 °F 97% 29.79 in 2.5 mi WSW 6.9 mph - N/A   Overcast
5:03 AM 43.0 °F 37.7 °F 42.1 °F 97% 29.80 in 3.0 mi WSW 9.2 mph - N/A   Overcast
5:35 AM 43.0 °F 40.3 °F 41.0 °F 93% 29.79 in 4.0 mi SW 4.6 mph - N/A   Overcast
5:54 AM 43.0 °F 38.8 °F 41.0 °F 93% 29.79 in 5.0 mi WSW 6.9 mph - N/A   Overcast
6:07 AM 42.1 °F 37.7 °F 41.0 °F 96% 29.80 in 5.0 mi WSW 6.9 mph - N/A   Overcast
6:24 AM 42.1 °F 38.4 °F 41.0 °F 96% 29.80 in 5.0 mi SW 5.8 mph - N/A   Overcast
6:36 AM 43.0 °F 39.5 °F 41.0 °F 93% 29.80 in 5.0 mi SW 5.8 mph - N/A   Overcast
6:54 AM 43.0 °F 38.2 °F 41.0 °F 93% 29.81 in 5.0 mi SW 8.1 mph - N/A   Overcast
7:54 AM 43.0 °F 39.5 °F 39.9 °F 89% 29.83 in 3.0 mi WSW 5.8 mph - N/A   Overcast
8:02 AM 43.0 °F 38.8 °F 39.9 °F 89% 29.83 in 3.0 mi WSW 6.9 mph - N/A   Overcast
8:11 AM 43.0 °F 39.5 °F 39.9 °F 89% 29.83 in 3.0 mi WSW 5.8 mph - N/A   Overcast
8:54 AM 43.0 °F 38.2 °F 39.9 °F 89% 29.84 in 4.0 mi WSW 8.1 mph - N/A   Overcast
9:06 AM 44.1 °F 39.5 °F 39.9 °F 85% 29.84 in 4.0 mi WSW 8.1 mph - N/A   Mostly Cloudy
9:54 AM 46.9 °F - 39.9 °F 77% 29.85 in 7.0 mi West 10.4 mph - N/A   Partly Cloudy
10:54 AM 50.0 °F - 36.0 °F 59% 29.83 in 10.0 mi West 10.4 mph 20.7 mph N/A   Mostly Cloudy
11:54 AM 51.1 °F - 34.0 °F 52% 29.83 in 10.0 mi West 9.2 mph 19.6 mph N/A   Overcast
12:54 PM 51.1 °F - 30.9 °F 46% 29.82 in 10.0 mi WNW 12.7 mph 25.3 mph N/A   Overcast
1:54 PM 53.1 °F - 28.9 °F 40% 29.81 in 10.0 mi West 10.4 mph 20.7 mph N/A   Mostly Cloudy
2:54 PM 53.1 °F - 28.0 °F 38% 29.81 in 10.0 mi West 15.0 mph 26.5 mph N/A   Mostly Cloudy
3:54 PM 53.1 °F - 25.0 °F 34% 29.81 in 10.0 mi West 15.0 mph 29.9 mph N/A   Partly Cloudy
4:54 PM 53.1 °F - 25.0 °F 34% 29.83 in 10.0 mi West 17.3 mph 24.2 mph N/A   Partly Cloudy
5:54 PM 51.1 °F - 23.0 °F 33% 29.85 in 10.0 mi West 15.0 mph 25.3 mph N/A   Clear
6:54 PM 48.9 °F - 23.0 °F 36% 29.88 in 10.0 mi WNW 9.2 mph - N/A   Clear
7:54 PM 46.0 °F 41.9 °F 24.1 °F 42% 29.90 in 10.0 mi NW 8.1 mph - N/A   Clear
8:54 PM 45.0 °F 40.1 °F 23.0 °F 42% 29.94 in 10.0 mi WNW 9.2 mph - N/A   Clear
9:54 PM 44.1 °F 39.0 °F 23.0 °F 43% 29.95 in 10.0 mi WNW 9.2 mph 21.9 mph N/A   Clear
10:54 PM 43.0 °F 37.7 °F 23.0 °F 45% 29.97 in 10.0 mi WNW 9.2 mph - N/A   Clear
11:54 PM 42.1 °F 35.7 °F 21.9 °F 45% 29.96 in 10.0 mi WNW 11.5 mph 20.7 mph N/A   Clear